Theta_e
323 324 323 324 323 322 321 319 315 313 313 312 313 311 311 311 312 312 312 311 311 311 310 310 310 311 312 312 312 312 313 314 316 316 317 317 318 319 319 321 326 326 324 323 323 323 321 321 321 320 319 318 318 318 317 317 316 316 315 315 315 314 314 313 313 313 313 313 313 312 312 311 311 311 312 311 311 312 312 311 311 312 311 311 311
323 322 323 323 322 321 320 317 314 312 312 312 310 311 310 310 310 311 311 310 310 309 310 310 309 309 309 311 310 310 310 311 312 313 313 314 315 318 315 320 323 326 324 323 323 323 320 321 321 320 319 319 318 317 316 316 316 315 315 314 314 313 313 312 312 312 312 312 312 311 311 311 310 311 311 311 311 311 311 311 311 311 310 310 310
322 322 323 322 321 320 319 317 313 311 311 310 309 310 310 310 311 310 310 310 309 308 309 309 308 307 307 308 308 308 308 308 309 309 310 311 313 314 317 315 321 323 325 323 323 322 321 321 320 320 319 319 318 317 317 316 315 315 314 314 313 313 312 312 312 311 311 311 311 310 310 310 310 310 310 310 310 310 310 310 310 309 309 309 309
321 320 321 321 321 320 319 317 314 310 310 309 308 309 309 309 308 308 308 308 307 307 307 308 307 305 305 305 305 307 306 306 307 306 307 309 310 312 314 319 316 319 322 325 323 322 321 320 319 319 319 319 319 318 317 316 316 315 314 314 314 313 313 312 312 311 311 311 311 310 310 310 309 309 309 310 310 310 309 309 309 309 309 309 309
320 320 319 320 320 320 319 318 313 309 308 307 307 307 307 307 306 306 306 306 306 306 306 306 306 303 303 303 304 304 304 305 305 304 305 307 308 308 310 313 316 313 315 321 323 322 320 320 320 319 319 319 319 318 318 317 316 315 315 314 314 313 313 313 311 311 311 310 310 309 309 309 309 309 309 309 309 309 309 309 309 308 307 308 308
321 320 320 319 319 319 319 318 313 309 307 306 305 306 306 306 305 305 305 306 306 305 305 305 303 302 303 301 302 302 302 304 303 303 302 305 305 306 307 309 311 315 318 316 320 321 323 320 320 319 318 319 319 319 318 317 316 315 315 315 314 314 313 313 312 311 311 310 310 309 308 308 308 308 309 308 308 308 308 308 308 308 307 307 307
322 320 319 319 319 319 319 319 314 310 306 305 305 304 305 304 303 305 304 304 304 303 305 305 303 302 301 300 301 300 300 301 300 301 301 301 301 303 305 307 309 310 312 317 312 314 320 321 320 319 318 320 319 318 318 317 317 316 316 316 315 315 313 312 312 312 311 311 309 309 309 308 308 308 308 308 308 307 307 307 306 306 307 307 307
323 322 320 319 318 318 319 319 315 311 308 305 304 303 304 304 304 306 304 303 302 302 303 303 302 301 300 300 300 299 299 299 300 300 300 299 300 300 302 304 305 308 307 312 315 315 313 319 321 319 318 320 319 318 318 319 317 316 316 316 315 315 314 313 312 312 311 309 309 308 309 308 308 307 307 308 307 307 306 306 306 306 306 306 305
323 322 321 320 319 318 318 318 316 312 309 306 305 306 305 305 304 306 309 305 303 303 301 301 300 299 298 298 298 297 298 298 298 298 298 299 299 299 299 300 301 302 304 306 310 314 312 314 319 319 318 319 318 317 318 318 318 316 314 314 318 316 314 313 312 311 310 309 308 308 308 307 307 307 307 307 307 307 306 306 306 305 305 305 305
324 323 322 321 319 318 318 318 316 314 311 308 307 307 306 306 304 304 306 305 303 303 302 300 300 298 296 296 296 297 297 297 296 296 296 297 297 298 299 296 297 299 299 300 304 307 311 312 313 313 311 318 319 318 318 318 318 316 316 315 313 316 315 313 312 311 310 310 308 308 308 308 307 307 307 307 306 306 305 305 305 305 305 306 305
324 323 322 321 319 319 318 318 316 314 312 308 306 305 304 304 304 303 304 304 304 304 303 302 300 298 296 295 294 294 295 295 294 293 294 295 296 298 297 294 294 295 296 296 298 300 303 307 312 315 315 314 320 319 318 318 317 317 317 315 316 315 313 313 312 311 310 309 309 308 308 307 307 306 307 306 306 306 306 306 305 305 306 305 305
323 322 321 321 319 317 317 315 314 313 312 308 306 303 303 303 305 304 302 301 302 302 301 300 299 298 296 294 294 295 296 297 296 294 294 295 295 296 296 296 294 295 295 295 295 295 297 300 302 307 310 314 315 316 317 317 318 317 317 317 316 315 314 313 312 311 310 310 309 309 308 307 307 306 306 306 306 306 305 306 305 306 306 305 306
323 322 321 319 320 319 317 314 313 312 312 310 308 306 304 304 304 303 302 300 298 299 298 299 297 297 297 297 296 296 295 295 295 294 293 294 294 294 295 294 294 294 295 294 294 294 294 295 297 298 302 308 312 309 313 314 315 317 317 317 316 316 315 314 312 311 310 309 309 308 307 307 307 307 307 307 307 307 307 306 306 306 305 306 306
323 324 322 321 319 317 315 313 313 312 312 312 311 306 304 303 303 301 302 300 299 298 298 299 298 299 299 299 298 298 297 296 296 296 295 294 293 293 294 293 294 294 294 292 292 292 292 292 293 294 296 300 307 311 312 312 314 316 317 317 317 317 315 315 313 312 311 310 309 309 308 308 307 307 307 307 307 307 306 306 306 305 306 306 306
326 324 323 321 320 319 317 315 313 312 311 312 311 308 305 303 302 302 300 300 299 298 299 302 302 300 302 301 298 297 301 298 298 297 297 296 294 293 293 293 293 293 293 293 292 292 291 290 291 293 294 296 301 304 306 304 306 309 317 316 315 317 315 315 315 313 312 311 310 309 308 307 307 307 308 307 307 307 306 306 305 305 305 306 305
328 326 324 324 323 321 320 318 315 312 310 310 309 308 304 303 303 303 303 299 297 297 299 301 304 301 299 300 298 298 297 302 303 303 300 297 294 293 292 293 294 294 292 291 293 292 290 290 290 292 294 296 298 300 302 304 303 303 304 306 308 314 317 315 315 315 313 312 310 309 308 307 307 307 307 307 306 306 306 306 306 305 305 305 306
331 328 324 325 323 321 320 319 317 313 312 311 311 309 306 305 304 303 302 301 299 297 296 298 302 305 307 295 292 292 297 302 298 301 293 296 295 294 293 292 293 293 292 292 291 291 291 291 291 292 293 293 294 296 298 299 301 301 299 296 301 310 313 316 315 315 315 314 313 310 308 308 307 307 307 307 307 306 306 306 305 305 305 305 305
332 331 328 325 325 323 321 320 319 317 315 315 314 312 309 306 304 304 303 304 304 298 295 296 299 302 305 308 304 304 300 297 300 301 291 294 296 295 294 293 292 292 293 293 292 290 289 289 291 291 291 291 292 293 295 296 297 299 298 300 303 307 309 312 315 315 315 315 313 311 311 308 307 306 306 306 306 305 306 305 305 305 305 305 305
327 330 330 327 326 325 323 322 321 319 314 315 313 311 310 308 306 304 304 303 303 300 298 296 296 298 301 302 301 295 298 298 297 297 296 294 288 291 292 294 292 291 292 292 293 292 291 289 290 292 292 291 291 292 292 293 295 296 300 302 308 308 307 308 309 312 315 314 314 312 312 310 308 307 306 305 305 305 305 305 305 305 305 305 304
328 328 327 326 326 327 326 325 323 321 316 314 315 315 313 311 307 305 305 304 303 302 301 299 295 296 299 298 299 298 296 295 295 298 296 294 296 291 289 291 291 290 290 291 292 291 291 291 290 291 292 292 291 291 291 291 292 295 297 302 308 308 307 307 306 306 308 310 313 313 312 311 309 308 306 305 304 303 303 304 304 304 304 304 304
323 325 325 326 323 325 327 327 325 323 317 317 315 314 313 311 308 306 305 305 304 304 304 302 298 302 299 296 297 298 297 295 294 293 292 295 298 299 296 290 289 289 290 291 291 292 291 292 291 291 291 291 291 290 290 290 290 291 294 300 306 309 309 308 305 304 303 304 306 307 309 309 308 306 304 304 303 303 303 303 303 304 304 304 303
319 320 322 322 323 323 322 322 323 323 318 319 317 315 313 312 310 308 306 304 305 303 303 303 301 301 302 301 297 296 296 295 295 293 292 293 295 298 300 295 292 293 290 290 290 290 291 291 291 290 290 291 291 290 290 290 291 291 292 296 302 306 308 308 306 304 302 302 302 302 305 305 305 304 303 303 303 303 303 302 303 304 304 304 304
317 317 318 319 320 318 319 319 319 316 316 317 317 317 316 314 313 310 307 305 304 303 302 303 304 303 303 303 302 299 299 299 297 298 295 293 292 293 295 297 298 300 295 291 291 291 290 290 289 290 290 290 290 290 289 289 290 290 291 294 298 303 305 306 306 304 303 303 302 300 300 299 300 300 301 302 301 301 301 302 303 303 304 304 304
314 315 315 315 316 317 315 317 315 316 316 316 316 317 317 316 314 311 308 307 306 304 304 303 303 303 302 302 301 301 300 302 305 304 297 297 297 298 299 296 293 294 292 289 290 289 289 289 290 289 289 289 290 290 288 288 288 290 290 293 297 301 305 306 307 305 303 303 302 301 299 298 298 298 299 299 300 300 300 302 303 303 304 304 304
309 311 314 315 316 316 317 316 317 317 317 317 316 315 315 314 314 312 310 308 307 306 305 304 304 303 303 302 301 301 300 301 302 303 302 301 299 297 297 296 296 298 294 290 289 288 289 289 289 289 288 288 289 289 288 287 288 290 290 291 295 299 301 303 305 305 303 302 301 301 300 299 299 298 299 299 299 299 300 301 302 302 302 303 303
308 308 312 314 314 314 315 316 317 318 317 317 317 316 315 314 314 313 312 311 309 307 306 305 305 305 305 303 302 301 301 302 302 302 300 298 296 295 296 295 293 295 293 288 289 287 289 289 290 289 288 288 288 289 288 287 287 289 290 289 292 296 299 301 303 304 303 303 302 301 299 298 298 299 298 297 298 298 299 300 301 301 302 302 303
307 308 308 309 311 313 313 314 315 315 314 314 313 313 313 313 312 311 311 311 309 307 306 305 304 304 303 303 303 302 302 303 302 301 301 300 300 298 296 294 295 294 292 290 287 287 296 290 288 288 288 288 288 288 288 288 288 289 289 288 287 292 297 298 301 302 302 303 301 299 297 297 298 297 296 296 296 297 297 298 298 300 301 301 300
306 305 304 305 307 308 309 310 312 313 313 313 313 312 311 310 311 310 309 308 308 306 306 306 305 305 304 304 303 303 303 302 302 302 301 301 301 301 299 296 295 294 295 294 290 290 290 292 289 288 288 288 288 288 288 288 287 289 288 288 286 288 294 297 299 300 300 300 299 298 298 297 296 295 296 295 294 294 294 295 296 296 296 296 297
304 303 304 302 304 304 306 307 307 309 310 310 310 311 310 309 309 309 308 307 306 307 306 306 306 305 305 304 303 303 304 304 303 302 302 301 301 300 300 298 298 295 294 294 296 292 291 290 292 290 288 288 287 288 287 287 288 287 287 287 287 286 290 296 298 298 300 299 299 298 297 295 295 295 294 294 293 293 294 294 295 295 296 297 298
302 302 301 302 301 300 303 304 304 305 306 307 308 307 307 307 307 307 308 307 306 306 306 306 306 306 305 305 304 304 304 303 303 302 300 300 299 298 298 298 298 296 295 294 295 295 293 288 290 290 287 288 288 288 288 287 288 287 286 286 286 285 289 294 297 297 298 298 297 296 297 296 295 294 293 292 292 293 294 295 295 295 296 297 298
300 300 300 300 300 299 300 301 301 301 302 304 304 305 305 305 305 305 306 306 305 305 306 306 306 305 303 303 303 303 303 302 301 299 298 298 298 298 298 298 296 297 297 296 293 295 298 295 287 289 286 287 287 287 287 287 287 287 286 286 286 287 288 291 294 296 297 297 296 296 297 296 294 293 292 292 292 293 294 294 295 295 296 297 297
299 299 299 299 298 298 298 299 299 299 300 300 300 301 302 303 304 303 304 304 304 304 304 303 304 303 303 301 300 301 301 300 299 298 297 297 297 297 296 296 296 295 296 294 293 294 293 293 290 287 287 286 287 285 285 285 286 287 286 286 286 287 286 287 292 295 296 296 297 296 295 294 293 293 292 292 291 292 293 294 295 295 295 296 296
297 297 297 298 298 298 298 297 297 298 298 298 298 299 300 301 302 302 302 301 301 301 301 299 299 299 299 299 299 299 299 298 298 297 297 297 296 295 295 295 294 294 293 293 292 292 292 284 287 285 286 286 285 285 285 285 285 285 286 285 285 285 285 285 288 291 294 294 294 293 293 293 293 292 291 290 291 292 293 294 294 295 295 294 294
295 297 297 297 297 296 296 297 296 296 297 298 298 297 298 298 299 300 300 298 298 298 298 298 298 298 298 298 298 298 298 298 297 297 297 296 295 294 294 294 294 293 293 292 292 292 292 287 285 285 285 285 284 286 284 284 283 283 283 283 284 284 284 284 286 289 292 292 292 292 292 292 291 291 290 291 292 293 294 295 294 293 292 292 292
293 294 295 295 294 294 295 295 296 295 296 295 295 295 296 296 297 297 299 298 297 297 297 297 298 297 296 296 296 297 297 296 296 296 296 295 295 294 294 294 293 294 294 293 292 291 291 292 286 283 283 284 284 284 284 284 283 283 282 282 283 283 284 284 285 286 291 291 291 291 291 291 290 291 291 292 292 292 292 292 291 291 291 290 288
293 293 292 293 293 293 293 294 294 294 294 294 294 294 295 295 296 296 296 296 297 296 297 297 297 297 297 296 296 296 295 295 295 295 295 295 294 294 293 293 293 293 293 293 292 292 292 292 286 285 284 283 284 284 284 284 283 282 282 282 283 282 282 283 283 285 288 290 291 290 290 290 290 290 291 291 291 291 290 290 290 289 288 287 286
292 292 292 291 292 292 293 293 294 294 294 294 294 294 294 295 295 295 296 296 296 296 296 297 294 296 296 296 297 296 296 294 295 295 295 294 294 293 293 293 293 293 292 292 291 291 291 290 288 284 284 284 284 284 284 282 282 282 282 281 281 282 282 282 283 284 288 290 289 289 289 289 290 290 290 290 289 289 289 289 288 286 285 285 285
291 291 291 291 291 292 293 293 293 293 294 294 294 294 295 294 294 294 294 295 295 295 295 296 296 295 295 296 296 296 295 294 295 295 294 294 294 293 292 292 293 292 291 291 291 290 290 290 289 282 283 282 282 282 283 282 281 279 280 280 281 281 281 280 281 282 284 285 285 286 287 288 288 288 288 288 288 288 288 287 286 285 284 283 284
290 291 291 291 291 291 292 292 292 293 293 293 293 294 294 294 294 294 294 294 294 294 295 295 296 296 295 296 296 295 295 295 294 294 294 293 293 292 292 292 292 291 291 290 290 289 289 288 287 284 282 282 282 281 282 282 281 280 279 278 278 280 280 280 279 280 281 282 284 285 285 284 285 286 287 287 287 287 286 285 284 283 282 282 284
289 290 290 291 291 291 291 291 292 292 292 292 293 293 293 293 293 293 293 293 293 294 294 294 294 295 295 295 295 295 295 295 295 294 294 293 293 292 292 292 291 290 290 289 288 288 287 287 286 283 282 281 281 281 281 280 279 279 280 279 277 277 278 280 281 279 280 281 281 282 284 284 285 285 286 286 285 285 285 283 282 282 281 283 284
289 289 289 290 290 290 290 290 290 291 291 292 293 293 293 293 293 293 293 293 293 293 293 293 294 294 294 294 294 294 294 291 291 292 293 293 293 292 292 291 290 290 289 289 288 287 287 286 285 283 281 280 279 278 278 278 278 278 280 281 279 279 279 279 280 281 281 280 280 280 281 283 282 282 281 281 282 283 283 282 282 281 282 284 284
288 288 288 289 289 289 289 290 290 290 291 292 290 291 292 293 293 293 293 293 292 292 292 292 292 293 293 294 294 290 289 289 289 290 292 292 292 293 293 291 290 289 288 288 287 287 287 286 285 282 280 280 279 279 278 279 280 281 280 281 279 279 279 279 278 279 281 281 279 278 279 281 281 281 280 280 280 281 281 281 280 281 282 283 283
288 288 288 288 289 289 289 289 290 290 291 291 290 292 293 294 293 293 292 293 292 292 292 292 292 292 292 293 293 291 289 288 289 289 291 291 291 291 292 291 291 290 288 288 287 287 286 286 285 282 282 280 279 279 279 280 281 280 280 281 280 279 278 277 276 278 280 281 280 278 278 280 281 280 279 279 279 279 280 281 281 282 282 283 283
288 288 287 288 288 289 289 289 289 289 290 290 292 292 293 293 293 293 293 292 292 292 292 292 292 292 292 293 293 292 292 291 291 290 290 290 291 291 291 291 291 291 291 289 288 287 286 285 284 282 282 281 280 279 280 280 280 281 281 281 280 279 279 280 280 277 280 281 280 278 278 279 280 279 278 279 279 280 280 281 282 282 282 283 283
286 286 288 288 288 288 288 288 289 289 289 290 291 292 293 293 294 293 293 293 292 291 292 292 291 292 292 292 292 292 292 288 288 290 290 289 289 289 290 290 290 290 291 292 291 289 288 286 285 283 283 282 280 280 281 281 282 280 281 280 281 281 281 281 282 279 278 281 280 278 277 278 279 278 277 279 279 279 280 282 282 281 282 282 282
287 287 287 287 287 287 288 288 288 289 289 289 291 291 292 292 293 293 293 292 292 292 292 292 292 292 292 292 292 291 291 289 289 288 288 288 288 288 288 288 288 288 289 290 290 289 287 287 286 284 284 284 282 282 283 284 282 281 280 280 282 281 281 282 281 279 280 281 280 278 275 276 277 277 277 278 279 279 279 280 281 281 281 281 281
286 286 287 287 287 287 287 287 288 288 289 290 291 291 292 292 293 293 292 292 291 291 291 291 291 291 291 291 291 291 291 289 289 288 287 287 287 286 286 286 287 287 286 287 288 287 286 287 287 286 285 284 284 283 283 284 284 283 283 282 282 282 281 280 279 280 279 281 280 279 274 275 277 276 277 277 278 279 279 280 280 280 280 281 280
286 286 286 286 286 286 287 286 287 287 288 290 290 291 291 292 293 291 291 290 290 290 290 291 291 291 291 291 290 290 290 289 288 289 288 287 286 286 285 286 285 285 285 286 288 288 287 287 286 286 285 285 286 284 284 284 284 284 283 282 282 280 279 278 276 277 277 280 280 278 274 274 277 276 276 277 277 277 277 277 278 278 280 279 278
285 285 285 286 286 286 286 286 286 286 287 288 289 290 291 291 291 289 289 289 289 289 289 290 290 291 290 290 290 289 289 288 288 290 290 288 286 285 285 285 284 284 284 285 288 288 288 288 288 288 288 287 288 287 287 287 285 283 282 280 279 280 279 276 276 276 276 277 277 278 276 274 275 276 275 275 275 275 275 275 276 279 279 277 276
284 285 285 285 285 285 285 285 285 285 286 287 288 289 290 290 290 288 288 288 288 288 288 289 290 289 289 287 287 288 288 288 289 289 290 288 285 285 285 284 283 282 283 284 285 286 288 288 288 288 288 288 288 288 288 287 286 285 282 280 280 281 280 279 276 276 276 276 277 279 276 274 274 274 272 272 272 272 273 274 274 274 275 275 274
283 284 284 284 284 285 285 284 284 284 285 285 287 288 289 289 289 287 288 287 287 287 288 288 288 288 288 287 286 287 288 288 289 289 289 288 286 285 284 283 282 282 283 284 284 284 284 284 285 285 285 286 286 286 286 287 286 285 285 283 282 281 280 279 277 276 274 275 276 279 275 273 272 273 272 270 269 270 272 273 273 273 272 272 271
Wind_Speed
4 4 3 3 3 4 4 3 3 3 3 3 3 4 3 2 3 3 3 3 3 3 2 2 1 1 2 3 2 2 2 0 0 1 1 1 0 1 3 4 4 9 10 7 9 11 11 11 10 9 9 8 8 8 9 9 9 9 9 9 8 9 9 9 9 9 9 9 9 9 9 9 9 10 10 8 10 10 10 10 10 11 10 11 11
5 4 5 4 3 3 4 4 3 3 3 4 3 3 4 3 2 3 3 3 3 2 3 3 2 1 1 3 2 2 1 1 1 1 0 0 0 1 2 5 5 6 8 11 11 10 10 11 12 10 9 9 8 9 9 9 9 8 8 8 8 8 9 8 8 8 8 8 9 9 8 8 7 8 10 9 9 9 9 9 9 9 9 10 10
5 5 4 4 4 4 4 4 4 4 3 4 3 3 3 3 3 3 3 3 2 2 1 2 2 1 1 1 1 1 2 1 1 1 1 1 0 0 2 5 8 8 9 13 12 11 10 10 10 10 9 9 9 9 9 9 9 9 9 8 8 9 8 8 8 8 8 8 7 8 9 7 6 7 8 8 8 8 8 8 8 8 8 7 8
5 5 5 5 5 5 4 4 4 4 4 4 4 3 3 3 3 2 3 2 3 2 1 2 2 1 1 1 1 0 0 1 1 1 1 1 1 1 1 1 3 7 8 12 12 13 12 11 10 10 10 10 10 10 10 9 9 10 9 10 9 9 9 9 8 8 8 8 8 7 8 9 6 5 7 7 6 7 7 7 7 7 7 7 8
5 5 5 4 5 5 6 5 4 4 4 5 6 4 4 4 3 3 3 3 3 2 2 2 2 2 2 2 2 2 1 1 1 1 1 1 1 1 1 1 1 2 5 8 13 11 11 12 12 13 11 11 11 11 11 11 10 11 11 10 10 10 9 9 9 9 7 6 7 7 6 8 9 6 6 6 6 6 6 6 6 6 6 7 8
6 6 5 5 5 5 5 5 4 4 4 5 5 5 5 5 4 4 4 4 4 3 3 3 2 1 1 1 1 0 0 1 1 1 2 1 1 1 1 1 2 2 3 5 10 9 11 13 14 13 12 12 13 13 13 12 11 11 11 11 11 10 10 10 9 9 9 9 8 7 7 6 6 7 6 4 5 5 5 5 5 6 6 6 6
8 6 6 6 6 6 6 6 6 5 5 4 5 4 4 5 6 5 4 3 3 3 4 3 4 4 2 2 2 1 1 1 1 1 1 2 2 2 2 2 2 1 1 2 3 8 9 13 15 14 14 15 14 14 13 13 15 14 13 13 11 11 11 10 11 10 10 9 8 8 7 7 6 6 5 5 4 4 4 4 4 5 5 5 6
9 9 8 7 6 6 7 6 7 6 4 5 5 6 5 4 5 6 7 6 5 5 4 4 3 3 2 2 2 1 1 1 2 1 1 1 1 2 2 2 2 2 2 1 2 3 5 10 13 12 14 18 17 14 14 14 14 14 15 14 12 12 11 13 12 12 9 8 8 8 8 7 6 6 5 5 3 3 3 3 3 3 3 4 4
7 7 7 9 10 8 5 6 8 7 7 7 7 7 7 7 7 7 6 6 7 6 5 4 4 3 3 3 2 2 2 3 2 2 2 3 3 3 2 2 2 4 3 2 2 2 4 6 11 13 14 13 14 14 15 16 15 14 10 10 17 13 14 11 11 9 10 9 9 9 8 7 6 6 5 4 3 3 2 1 1 1 1 2 2
14 12 9 7 5 7 9 9 9 8 7 7 6 5 5 5 6 5 4 3 6 7 7 5 4 4 3 2 1 2 2 2 1 1 2 3 3 3 2 1 2 2 3 3 3 2 3 5 7 7 8 5 12 17 15 15 16 14 14 13 10 14 15 12 11 11 10 11 11 9 9 8 8 7 5 4 3 2 1 1 1 1 2 3 3
6 8 8 10 10 8 7 11 9 8 7 7 7 6 5 6 7 7 5 3 2 4 4 5 4 3 4 3 2 2 2 1 1 2 2 2 3 3 2 3 2 2 2 2 3 3 3 3 3 3 4 8 4 10 16 17 15 15 15 15 17 15 12 14 13 13 12 12 11 10 10 9 9 8 6 5 4 4 4 3 3 3 3 3 4
7 7 7 6 5 6 3 2 6 6 6 7 7 7 9 8 9 7 6 4 1 1 1 4 3 2 2 1 0 1 3 1 2 4 3 3 3 3 4 4 4 2 3 2 2 3 4 4 3 4 4 6 8 5 1 2 9 16 16 16 16 16 15 15 13 12 13 12 13 12 10 9 9 8 8 7 6 6 5 5 4 4 4 5 5
10 8 8 7 6 6 8 9 8 7 7 8 8 8 8 6 4 3 6 6 4 4 4 4 4 1 2 3 3 3 4 3 5 6 5 4 3 4 3 4 4 4 4 2 2 2 3 4 4 4 4 4 5 7 7 5 3 16 18 18 16 16 16 14 15 14 14 13 13 13 12 11 10 9 9 8 8 7 6 6 6 5 5 6 6
12 13 10 10 8 5 5 6 7 9 12 10 9 9 9 8 7 5 4 8 7 5 6 8 4 8 4 3 4 5 7 6 8 9 7 6 5 5 5 5 6 6 4 3 4 5 4 3 4 5 5 4 4 4 5 5 5 12 20 19 18 19 17 16 14 15 14 14 14 14 13 12 11 11 10 10 9 8 8 7 7 7 7 7 7
10 11 10 10 10 8 8 7 9 7 5 5 8 8 8 10 9 8 6 5 5 4 8 11 7 3 2 2 5 3 5 5 9 12 9 9 6 7 6 6 7 6 5 5 5 4 4 3 5 6 6 5 4 4 5 5 7 5 5 7 12 19 18 17 17 17 16 15 15 14 13 12 12 12 11 10 10 10 9 9 9 8 8 8 8
8 9 9 13 14 14 13 10 9 10 10 10 9 9 8 9 8 9 8 8 7 7 8 10 5 9 3 8 1 1 5 9 10 9 11 12 9 9 6 8 6 7 4 6 5 4 5 3 4 4 4 4 3 3 4 5 8 7 7 7 5 4 13 21 20 19 18 16 16 15 13 13 13 12 11 11 11 11 11 10 10 10 9 9 9
7 9 8 7 8 9 9 10 12 10 9 9 9 10 12 11 10 10 11 11 10 6 7 9 10 10 7 5 2 2 9 3 3 5 5 10 13 10 9 9 8 6 6 6 5 6 6 5 4 4 5 6 5 4 3 5 6 7 7 7 8 8 5 12 19 20 20 19 19 18 15 15 14 13 12 11 11 12 12 12 12 11 10 10 10
10 9 8 9 11 12 12 11 10 10 10 11 11 11 10 8 9 10 12 11 12 10 7 6 9 9 9 7 3 5 3 2 2 8 2 7 6 10 10 9 7 7 7 6 8 9 7 8 5 6 7 8 7 5 5 6 7 7 7 7 9 9 7 8 11 20 21 20 19 18 18 16 15 14 13 12 12 11 12 13 13 12 12 11 11
6 8 9 11 10 9 10 11 11 12 12 11 11 12 12 15 14 14 12 11 10 9 9 6 6 9 9 12 9 1 2 4 7 3 7 0 5 6 7 9 8 8 9 8 7 8 8 8 9 9 9 7 7 5 5 5 6 7 10 10 13 11 7 6 1 4 14 20 20 18 19 18 16 14 14 13 12 12 11 12 12 13 13 12 12
10 9 7 6 9 10 9 7 7 7 7 10 11 12 10 9 10 12 10 8 10 11 11 9 11 10 9 13 13 6 2 2 1 5 4 5 4 2 4 6 6 8 8 8 9 11 10 9 10 9 8 8 6 6 6 7 7 6 5 10 13 12 10 7 5 1 2 3 13 20 20 17 14 14 14 13 11 9 10 12 13 13 13 13 14
7 7 8 9 8 7 9 11 10 9 7 8 9 8 9 12 14 13 16 13 12 14 10 10 10 15 8 11 10 11 7 5 2 2 5 7 13 9 7 0 4 7 9 11 11 10 11 11 8 8 7 7 9 9 9 6 6 5 5 11 13 14 13 11 8 6 3 2 3 3 11 15 14 14 13 12 10 9 9 10 11 12 13 15 15
6 7 7 7 7 8 7 7 7 8 9 11 13 13 12 11 10 10 11 12 9 10 12 9 10 9 11 7 7 8 8 8 9 8 7 8 14 9 6 8 10 8 9 11 14 12 11 9 9 10 11 10 9 10 8 7 7 5 6 10 12 15 15 15 13 10 7 5 5 6 7 8 9 10 11 10 9 8 9 10 11 12 14 16 17
6 7 7 7 7 7 7 7 7 6 6 5 6 8 9 10 11 12 13 13 11 11 11 12 11 12 14 14 13 11 13 13 12 12 11 11 8 12 11 10 14 11 7 9 8 11 10 10 12 11 8 8 9 9 11 10 9 7 10 13 13 14 14 15 15 14 12 11 10 9 8 8 8 9 10 8 8 8 8 10 11 12 15 16 17
5 5 5 6 6 6 6 6 6 5 6 4 5 6 7 8 8 10 11 12 12 11 12 14 15 11 12 11 11 11 11 13 9 10 10 13 12 15 10 6 6 9 1 1 5 8 9 11 14 10 11 9 8 10 5 8 7 13 12 13 16 18 18 18 18 17 17 17 15 13 12 11 10 9 8 8 7 7 8 9 10 12 15 17 17
6 7 8 9 8 8 8 7 7 7 8 7 5 5 6 6 8 9 11 12 12 13 12 15 14 14 13 11 11 10 11 10 9 9 7 9 10 12 11 7 13 9 4 3 5 4 8 11 10 10 12 11 12 10 10 11 10 12 15 10 18 17 18 19 19 18 19 18 17 16 14 13 12 11 9 7 7 7 8 8 9 11 14 16 17
8 9 9 8 8 8 9 9 9 9 9 9 9 7 7 7 8 9 11 10 9 12 13 14 12 15 12 10 12 12 12 12 12 9 10 8 9 12 13 7 7 12 3 3 2 2 7 10 10 8 10 12 12 12 11 11 10 12 19 12 13 17 17 17 19 19 19 18 17 16 15 13 12 10 7 8 7 6 6 7 9 12 14 15 16
8 7 6 8 9 8 9 9 9 8 8 8 7 7 7 7 7 8 8 7 9 10 11 12 13 14 12 12 10 10 12 12 11 11 10 12 12 10 9 13 12 10 10 6 2 10 13 2 9 9 10 10 9 9 11 6 7 12 17 11 10 16 15 17 19 19 19 19 17 16 15 13 11 9 8 6 4 3 5 7 10 12 14 15 16
6 7 8 7 8 9 8 9 8 8 8 8 7 6 6 7 7 6 8 4 7 10 10 10 14 14 13 12 10 12 10 10 10 11 11 11 13 10 9 10 12 17 8 10 6 11 10 11 4 10 9 9 9 10 13 11 11 14 16 11 10 11 15 19 21 19 18 18 17 16 14 12 11 10 9 6 3 2 5 8 10 12 14 15 15
7 6 7 7 7 8 9 9 9 9 9 9 9 8 8 8 8 8 9 5 7 9 9 10 10 10 10 12 12 11 11 10 10 11 11 10 11 10 10 12 11 13 12 11 12 8 6 13 10 7 11 8 10 7 9 10 9 13 11 11 11 10 12 19 20 19 19 18 17 16 15 14 13 11 8 5 3 3 6 9 12 13 14 14 15
6 6 6 7 7 7 8 8 8 8 9 9 9 8 8 8 9 9 9 7 9 8 8 8 10 9 11 11 12 12 12 12 12 11 11 11 11 11 10 11 10 13 12 14 16 7 4 5 8 7 7 9 8 7 8 8 12 15 12 11 11 11 16 20 20 20 19 18 17 16 16 15 13 10 7 4 3 5 8 12 13 13 14 15 16
6 6 7 7 7 7 7 8 7 8 8 9 9 8 8 9 9 9 8 8 9 10 9 9 9 9 10 12 11 12 11 11 10 9 9 10 11 10 11 10 10 13 14 13 16 6 7 9 7 7 6 8 7 8 8 8 11 15 12 11 11 11 15 15 18 18 18 18 18 18 17 15 11 9 7 4 4 7 11 13 13 13 14 16 17
6 7 7 8 8 8 7 7 8 7 8 8 8 8 8 9 9 8 8 9 10 11 10 9 9 10 11 12 12 12 10 9 10 10 10 11 11 11 11 11 12 12 12 12 15 18 5 6 4 7 7 6 8 8 8 7 8 14 11 10 10 13 12 9 16 17 18 19 18 16 14 12 11 10 7 5 4 7 11 13 14 14 16 16 14
6 7 8 8 8 8 7 8 8 8 8 8 8 8 9 10 9 9 8 9 11 11 10 10 9 10 10 11 11 12 10 10 9 9 10 11 10 11 9 10 11 10 11 12 15 17 9 3 3 5 6 7 7 9 9 8 8 9 10 8 9 10 9 8 9 14 15 17 16 14 12 12 12 10 7 5 7 10 12 13 15 16 14 10 10
5 7 8 7 7 7 8 8 8 9 9 9 8 8 9 10 11 9 9 9 11 11 10 12 10 9 9 11 12 12 10 12 10 12 11 11 11 11 11 11 12 12 12 12 14 13 18 3 4 2 4 6 7 7 10 11 10 9 11 9 8 9 8 7 7 8 15 15 14 14 13 12 11 8 7 8 10 13 13 14 14 10 8 9 10
6 6 7 7 7 7 8 8 9 9 9 9 8 8 9 10 11 10 10 10 11 12 12 12 11 9 10 11 11 10 8 10 11 11 10 12 10 12 13 10 13 13 12 14 12 14 15 13 6 6 6 6 8 7 10 7 8 9 9 7 6 6 6 8 8 7 15 15 16 15 13 12 10 9 9 11 11 11 11 10 9 8 8 5 2
7 6 6 7 6 7 8 8 9 9 8 8 8 8 10 10 11 11 10 11 11 11 12 12 10 10 11 11 12 10 9 11 11 10 10 10 10 10 11 11 12 13 13 11 14 13 12 12 5 9 6 6 4 3 5 5 6 5 5 4 5 6 6 6 6 8 12 16 16 14 13 12 11 10 11 10 10 9 9 9 8 5 2 0 2
7 6 7 5 6 7 8 9 8 8 8 8 8 9 9 10 10 10 10 10 11 11 11 11 11 11 11 12 11 10 10 12 11 11 9 11 11 10 12 11 11 12 10 10 12 11 12 13 6 2 3 3 1 2 7 8 6 5 5 5 6 5 5 4 3 4 11 17 15 14 12 11 10 11 10 10 9 9 9 7 5 2 1 1 2
7 6 7 6 6 8 8 9 8 8 8 8 9 10 10 10 10 10 10 10 11 10 11 11 11 10 11 11 11 10 10 12 12 10 10 12 11 12 12 11 11 10 11 10 10 11 11 11 8 4 4 6 3 2 6 7 9 6 5 5 4 4 6 5 3 3 3 5 5 6 9 9 11 11 11 10 10 9 8 5 4 2 2 1 3
7 8 7 7 7 7 8 8 8 8 8 8 9 10 10 10 11 11 10 10 11 10 11 11 10 10 11 11 11 10 11 11 11 11 10 11 10 12 11 12 11 10 10 10 9 10 10 10 6 6 6 4 5 5 3 3 3 7 11 7 4 2 2 5 5 2 2 3 5 8 8 7 9 7 10 11 10 9 7 6 4 3 1 1 3
7 7 8 8 8 6 8 8 8 8 8 8 9 9 10 10 10 10 10 10 11 11 11 10 10 11 11 11 11 11 11 11 11 11 10 11 10 11 10 10 10 10 10 9 9 9 9 9 9 6 6 5 4 3 6 8 7 4 5 6 8 6 5 4 4 7 5 5 6 6 7 9 10 11 12 9 7 7 7 5 4 2 1 2 3
7 7 7 7 8 9 8 8 8 8 8 9 9 9 9 10 10 11 11 11 11 11 11 11 11 11 11 11 11 11 12 14 16 15 14 13 10 10 10 9 10 10 10 8 8 8 7 8 8 6 6 5 6 8 9 9 10 9 8 6 6 6 6 6 3 2 4 6 5 4 6 6 7 4 4 4 4 6 5 6 4 2 2 2 3
7 7 7 7 7 8 9 9 8 8 8 8 10 14 13 11 10 10 10 11 11 11 11 11 11 11 12 11 12 15 16 16 17 18 18 17 17 14 11 8 10 9 9 9 9 9 9 9 10 10 11 11 8 10 9 8 8 8 9 9 11 8 7 5 4 3 5 7 7 6 4 4 6 5 4 4 3 4 3 3 3 3 3 2 2
8 7 6 7 8 7 8 9 9 9 8 8 13 14 15 17 13 11 11 11 10 11 11 12 12 11 11 12 12 13 14 14 15 17 18 19 19 20 20 17 13 12 11 11 11 10 10 11 9 10 11 10 9 9 11 11 9 13 12 11 10 9 9 9 8 3 5 8 9 7 6 5 5 5 4 4 4 3 3 3 4 3 2 2 2
6 6 7 8 8 8 8 8 9 9 9 10 14 14 15 17 15 12 11 11 11 11 11 12 11 11 11 11 11 10 10 12 11 12 15 18 19 19 19 19 18 18 17 14 12 10 11 10 9 11 11 9 12 11 10 12 13 12 11 9 9 10 10 9 8 7 6 11 8 7 6 5 4 4 4 4 3 3 3 4 5 2 2 1 3
5 5 7 7 8 7 7 9 10 9 9 10 12 15 15 17 17 15 11 11 11 12 11 12 11 11 11 11 11 9 8 12 12 11 11 11 14 18 18 18 18 19 19 21 18 13 10 11 12 12 14 12 14 11 13 15 12 10 9 9 9 9 9 10 8 6 6 10 7 8 8 7 5 5 5 3 3 3 2 4 3 2 1 2 3
6 6 6 6 7 8 8 9 10 9 9 9 11 13 15 16 17 15 12 12 12 13 13 12 11 12 12 11 11 10 8 9 9 10 10 10 10 10 11 11 11 14 18 20 19 17 13 12 12 13 10 10 12 12 13 12 14 13 11 9 10 9 10 9 6 6 8 9 9 7 4 5 5 5 5 5 3 2 2 3 3 2 2 2 1
8 9 9 10 8 7 8 8 9 10 9 10 12 13 14 16 16 15 11 11 11 12 12 12 12 13 12 11 11 11 9 8 9 10 10 10 9 10 9 10 10 10 10 11 11 11 10 10 11 10 10 12 12 13 13 12 14 13 13 14 13 9 8 8 7 6 7 6 6 5 5 4 4 5 5 4 3 4 2 1 2 1 3 1 5
6 6 7 5 8 9 8 8 9 12 9 9 13 13 14 14 17 11 10 10 11 11 11 12 12 11 11 11 11 11 10 10 10 14 14 9 9 11 11 10 9 8 9 11 13 12 11 10 9 10 10 12 12 12 13 12 9 7 8 8 8 10 11 8 7 7 7 5 4 4 4 4 5 6 5 4 3 2 2 2 2 4 3 7 6
7 8 8 8 7 8 10 8 8 11 11 9 11 13 13 14 12 9 9 9 11 12 12 12 11 11 10 10 10 10 10 10 11 16 17 14 10 11 10 10 9 8 8 7 12 15 14 15 16 15 14 16 17 18 20 19 13 12 11 10 10 11 11 8 6 6 7 6 3 4 4 5 5 4 4 3 3 2 1 1 1 4 9 6 6
12 10 9 10 9 7 9 11 8 10 13 11 11 13 14 14 12 10 9 9 11 12 12 12 10 9 10 13 12 10 11 11 13 18 17 13 11 10 10 10 10 10 8 6 6 9 14 15 16 16 16 19 20 23 24 22 21 16 13 13 13 11 11 11 8 7 5 5 5 5 5 4 5 3 4 2 2 1 2 4 5 6 7 6 7
10 9 8 9 11 10 8 9 12 11 12 14 11 11 16 15 12 8 9 9 11 12 10 11 9 8 9 10 15 14 13 13 18 16 18 15 11 11 11 10 11 11 10 9 10 9 9 10 9 10 11 15 14 13 15 25 24 18 12 11 12 10 10 10 9 8 5 4 5 8 6 6 6 2 4 2 1 1 1 2 3 3 3 3 3
Wind_Direction
158 157 151 151 136 134 135 129 129 128 133 127 131 131 123 125 127 127 124 128 126 121 109 81 85 87 114 122 128 121 120 128 292 76 49 93 7 2 223 179 180 155 158 161 156 150 156 156 155 152 149 147 145 145 145 144 143 141 141 141 140 138 137 137 133 131 129 128 125 124 121 110 106 110 106 96 96 92 86 81 78 80 70 68 61
161 156 162 155 150 140 139 142 141 144 147 142 151 139 140 140 132 132 137 132 128 117 137 129 117 122 150 141 148 146 138 155 173 125 123 312 27 185 276 208 169 170 160 154 153 158 185 160 160 160 159 156 158 155 152 153 150 148 149 151 149 146 146 145 141 140 137 136 133 126 114 109 101 103 109 103 93 92 90 90 83 83 75 71 67
163 164 171 159 163 163 157 147 148 158 157 140 146 145 142 149 155 151 149 141 124 125 143 130 133 130 87 157 124 155 145 176 181 155 179 209 209 264 285 253 183 179 177 166 166 170 174 170 170 169 168 166 167 166 165 165 161 160 158 160 160 158 157 154 152 150 148 142 138 131 123 117 112 115 111 106 101 98 91 86 84 80 76 62 69
167 171 173 169 170 176 166 168 162 158 158 147 144 145 143 132 123 110 113 119 125 132 131 145 137 115 100 39 342 26 149 222 206 174 190 196 208 222 242 250 207 193 195 177 170 182 184 182 177 173 177 176 176 175 176 173 172 169 169 168 170 169 167 165 163 161 161 155 149 143 146 133 127 113 113 113 107 103 95 88 83 77 68 55 48
177 175 173 171 170 176 185 186 167 158 153 148 136 138 139 136 124 128 123 129 137 140 144 157 157 159 179 173 184 181 189 234 268 281 264 241 253 250 251 268 255 245 235 203 182 199 188 184 178 182 187 184 183 184 183 182 179 178 178 177 176 176 177 174 174 171 174 161 152 155 145 145 141 140 127 120 113 109 98 89 80 74 66 55 43
170 175 174 178 180 186 183 184 172 159 147 150 152 157 153 152 147 150 155 164 167 167 171 171 169 162 186 167 224 204 264 233 250 304 316 283 323 304 288 264 250 229 207 218 192 194 192 191 188 194 188 190 190 190 191 189 187 189 185 184 183 185 184 185 183 183 178 175 169 164 163 158 152 146 140 128 120 107 101 88 78 73 66 54 44
178 168 180 180 181 186 189 188 166 164 160 166 151 160 158 163 160 159 163 176 173 174 187 181 173 181 181 193 204 182 227 239 278 261 286 327 313 309 282 269 268 273 245 208 203 204 201 194 199 195 198 191 202 195 194 198 190 191 191 191 192 191 192 194 192 189 189 184 176 172 177 177 172 161 157 143 121 113 100 86 72 62 51 47 41
176 176 176 182 186 192 192 168 166 171 167 164 164 171 176 162 194 172 165 183 173 182 186 182 183 178 180 199 193 193 217 235 239 236 245 261 261 277 278 279 280 275 258 244 207 195 233 213 204 202 214 201 203 197 201 203 208 207 198 200 200 198 199 201 199 198 193 184 186 181 185 188 181 175 172 164 144 130 112 94 68 54 46 39 30
205 202 189 182 182 187 198 184 170 174 177 180 187 185 175 178 188 207 196 165 181 173 181 181 174 176 180 196 190 188 210 221 212 219 250 229 209 221 250 261 298 296 287 270 221 207 212 226 213 208 214 223 203 207 203 205 212 214 237 229 190 197 208 208 208 199 197 194 197 200 198 193 195 191 189 183 177 162 154 151 157 84 7 5 20
191 185 197 209 218 194 173 178 177 182 179 182 198 187 196 191 184 195 218 182 185 183 188 179 165 167 177 185 178 215 237 248 249 283 263 284 299 263 238 252 250 256 280 293 296 256 213 223 211 191 181 181 211 207 215 213 208 220 212 219 237 199 194 210 208 206 204 207 204 202 198 200 205 202 206 205 213 219 220 242 298 314 324 322 333
213 203 200 193 189 204 202 179 175 179 177 179 180 182 188 200 198 191 192 209 229 215 184 163 164 169 178 171 157 218 257 272 316 264 243 249 265 276 287 258 262 268 268 288 294 301 275 257 232 196 194 171 173 207 219 215 209 213 212 216 215 222 218 215 209 213 210 212 209 211 209 205 211 213 211 224 231 242 245 254 257 269 286 300 311
208 201 208 210 219 200 156 140 163 161 177 184 188 181 193 194 208 191 180 169 132 149 92 146 134 148 208 266 102 296 259 267 276 263 257 226 228 236 247 263 255 246 239 242 266 298 303 297 277 254 198 192 185 181 129 264 233 209 215 216 217 218 221 217 215 216 216 216 218 217 218 220 225 225 229 234 240 247 257 269 279 291 300 306 309
194 195 206 210 207 208 184 164 164 175 188 204 198 190 189 194 192 190 184 176 169 140 134 130 138 205 288 273 275 221 243 233 246 244 236 234 212 222 222 235 231 237 227 204 218 250 266 274 278 290 241 220 186 180 190 196 244 214 212 216 219 227 219 217 219 221 212 220 223 226 227 228 231 233 238 238 244 251 257 264 274 284 292 297 302
192 191 192 202 206 187 187 188 178 184 193 197 196 190 180 184 166 171 198 192 205 168 158 138 214 208 187 238 270 245 236 231 235 237 224 223 220 214 215 223 226 223 224 226 192 195 212 252 263 255 254 246 225 195 186 183 205 220 214 213 217 226 228 204 214 226 218 223 226 227 226 232 239 243 246 251 254 258 263 271 279 286 294 299 300
195 192 189 196 199 197 193 188 195 200 212 196 189 186 190 189 178 182 169 200 193 177 185 195 201 118 69 42 253 301 240 230 232 234 215 216 211 222 220 226 224 206 218 235 232 212 209 209 241 246 242 237 227 214 195 193 191 191 205 216 223 228 227 218 206 217 216 217 227 233 231 232 237 240 244 252 258 263 269 274 279 288 293 295 298
204 211 203 198 199 203 206 196 190 186 191 201 200 204 192 192 183 196 167 169 200 207 202 207 184 144 203 211 195 155 310 235 228 231 215 220 207 222 204 224 221 213 200 228 219 202 208 209 240 256 264 263 253 234 218 196 192 188 199 202 207 234 245 221 218 218 219 215 220 228 233 237 240 245 252 258 265 271 274 278 280 285 291 294 297
202 196 202 212 212 212 204 202 200 187 182 195 204 201 196 196 187 184 186 191 207 194 196 207 215 208 185 110 70 261 233 278 62 251 151 215 224 216 211 212 211 213 224 232 207 218 193 212 216 226 231 227 236 237 230 210 197 198 196 197 198 211 214 225 228 224 219 216 215 210 225 236 240 245 252 260 265 272 280 283 284 286 290 292 296
211 205 202 204 203 203 203 200 201 199 201 209 212 214 207 200 195 197 202 208 214 199 207 206 234 230 239 243 158 229 187 229 109 261 98 235 242 222 221 215 198 210 229 230 207 213 205 214 210 222 208 217 209 222 223 216 205 200 197 203 205 200 203 220 231 232 223 222 224 212 211 217 222 233 244 250 258 268 275 283 288 289 287 290 291
232 225 210 200 206 205 201 200 203 206 203 206 202 200 202 205 200 202 202 200 204 213 204 191 214 253 240 245 259 103 359 136 229 347 289 303 238 226 230 225 210 213 224 226 215 223 223 220 225 224 226 224 223 223 230 227 220 214 203 201 201 199 194 195 207 264 245 235 223 218 218 219 217 232 243 251 255 263 274 281 283 284 286 287 286
224 222 226 223 207 200 208 227 224 219 205 212 214 215 213 210 203 208 208 194 194 205 209 190 182 218 212 234 243 242 165 292 10 225 265 294 268 257 254 233 213 226 227 229 219 221 221 215 220 222 222 215 206 214 221 229 245 226 221 212 203 196 192 186 171 168 98 298 253 229 221 226 233 239 247 257 262 263 266 271 278 284 285 284 285
228 228 223 222 220 229 228 221 210 206 200 214 222 217 210 203 205 204 210 208 201 208 210 206 195 227 189 225 231 236 235 252 296 182 236 260 264 235 240 76 257 242 230 223 234 226 221 224 215 224 223 217 208 213 213 212 211 217 213 214 209 203 198 191 180 164 137 117 72 274 238 231 228 243 256 251 253 261 268 274 278 280 282 282 285
226 233 236 229 232 228 234 243 237 222 211 210 208 208 207 212 217 219 216 219 213 212 217 220 212 222 217 209 201 217 235 250 241 239 252 221 254 248 238 221 241 225 216 227 226 226 224 221 223 225 223 221 218 216 214 211 212 205 212 210 216 211 206 199 190 181 164 155 160 177 184 201 198 230 244 247 253 261 270 275 279 281 282 285 289
225 231 232 237 239 234 231 233 231 226 211 203 209 206 207 208 210 208 212 212 211 206 212 222 222 222 225 226 225 206 212 219 219 222 221 235 248 258 251 237 246 264 217 216 213 219 216 213 220 222 206 215 218 216 216 211 211 208 208 208 211 216 213 207 200 186 186 193 189 183 194 200 210 215 229 240 248 260 271 278 282 284 284 288 290
238 238 238 234 235 237 233 233 234 230 233 218 208 208 209 206 203 203 210 213 215 211 218 222 219 224 225 222 226 224 225 232 232 230 208 230 230 252 252 259 264 229 165 219 220 215 191 213 220 214 219 216 215 220 196 207 202 196 202 209 208 208 209 208 205 190 199 197 193 191 191 193 195 203 217 229 243 255 266 277 285 288 291 293 294
231 231 235 234 237 241 241 239 239 236 239 231 223 209 206 204 205 206 209 211 211 214 218 223 214 219 224 219 224 225 231 236 244 239 235 239 236 255 255 219 253 250 199 171 223 212 217 225 214 214 220 220 223 217 212 212 211 194 198 210 211 210 207 207 209 197 203 199 192 189 191 189 191 199 203 222 239 251 267 281 290 292 295 294 295
226 228 229 232 233 237 242 246 247 251 250 250 248 237 223 224 220 218 216 215 208 215 224 228 223 227 225 220 215 217 224 223 228 226 224 211 232 235 257 244 227 261 185 222 182 200 234 224 213 215 216 222 222 218 213 211 206 192 200 200 208 213 208 205 209 204 204 196 189 191 190 192 192 190 192 220 233 254 277 290 289 286 295 297 297
216 231 228 231 234 235 237 240 241 239 237 235 231 228 223 226 228 229 228 212 210 213 222 222 226 228 225 229 228 227 232 230 228 228 224 225 226 227 229 259 262 242 251 222 217 216 244 168 211 204 213 214 213 208 213 184 200 186 197 197 205 212 207 207 208 208 202 194 192 191 192 188 184 190 196 205 232 269 287 291 292 288 290 292 297
233 222 223 211 222 230 233 237 240 242 240 238 234 229 224 233 239 233 238 204 215 219 225 221 230 228 227 228 229 233 227 226 222 225 225 228 236 238 230 233 252 269 234 257 203 250 204 238 194 215 210 204 207 214 215 207 213 198 193 199 200 203 208 201 203 203 204 199 193 190 186 179 185 193 188 189 192 253 282 289 289 285 284 287 289
241 229 237 222 224 218 220 225 228 233 236 238 238 240 241 242 245 245 246 213 217 228 226 226 233 230 231 229 230 236 234 228 227 226 227 226 232 231 225 226 232 250 270 268 248 235 196 207 234 216 205 198 208 198 204 208 204 199 204 205 201 193 202 204 197 200 202 196 192 183 183 186 188 184 178 175 182 242 266 269 270 272 276 281 286
230 235 227 234 230 232 233 235 229 224 225 226 227 229 231 238 239 241 242 235 237 238 232 229 234 231 232 231 228 235 232 229 228 224 222 224 225 224 224 228 219 238 249 260 271 184 227 198 216 228 179 204 200 197 202 210 206 200 205 205 202 198 192 198 194 196 198 195 190 185 183 186 179 173 158 149 190 239 256 262 266 271 275 279 283
242 239 237 236 233 232 230 237 235 234 233 232 227 229 224 234 233 237 233 227 233 238 236 231 239 234 237 236 232 237 232 231 229 225 221 220 225 219 227 217 222 228 240 248 268 253 181 230 219 220 185 202 190 201 208 212 207 200 202 203 205 190 188 199 197 191 192 192 189 186 187 180 166 152 153 164 212 243 254 259 265 271 275 276 279
237 239 240 238 234 235 231 233 234 234 233 230 225 225 227 233 235 234 228 221 229 235 236 225 231 228 230 232 229 234 232 230 228 224 222 222 221 224 221 220 224 222 229 243 247 262 181 239 182 207 195 177 182 189 202 207 204 198 202 202 198 187 189 195 195 185 184 191 187 177 172 164 153 152 151 164 206 239 251 257 264 269 270 274 280
237 241 242 241 239 235 236 233 234 235 232 231 224 222 224 234 234 234 232 223 229 236 233 233 227 228 229 232 234 233 227 229 225 225 223 223 220 225 220 223 226 216 217 230 242 259 252 158 189 191 164 157 188 190 194 192 193 197 197 198 185 188 184 183 184 186 183 183 172 160 157 151 143 141 148 181 224 239 247 253 257 260 271 277 279
235 246 247 248 244 240 238 240 238 234 235 232 224 218 227 233 236 229 233 228 232 237 229 235 229 226 230 234 234 232 222 226 221 224 221 221 220 219 220 217 223 221 211 221 239 244 259 176 225 135 186 184 194 187 193 188 194 181 189 186 185 183 178 170 170 168 165 161 150 150 150 147 146 153 176 204 227 238 245 253 259 264 268 272 276
259 247 258 257 249 245 246 246 246 243 236 237 226 221 228 232 236 235 230 228 231 235 235 236 233 226 229 233 239 236 229 232 230 230 222 225 219 222 225 217 225 225 217 218 229 243 249 252 165 184 189 192 202 185 196 194 181 180 174 167 165 174 170 165 162 152 164 155 156 155 153 150 157 174 198 218 230 237 245 248 247 248 257 269 295
273 265 251 257 255 248 252 253 249 249 248 241 236 229 235 235 238 238 235 233 233 234 236 238 235 230 232 236 239 236 231 234 234 230 228 225 223 226 228 224 225 228 224 217 223 235 247 254 197 201 181 179 203 157 169 161 153 162 160 127 148 165 148 152 142 137 162 158 156 152 154 160 168 190 210 220 227 227 225 228 236 236 220 252 351
276 277 271 249 254 252 251 254 256 253 249 245 242 240 239 241 243 244 242 240 238 237 237 237 234 230 231 233 239 232 230 235 238 233 229 226 225 226 228 226 225 228 226 220 224 226 238 245 238 169 156 171 85 144 161 155 152 139 135 148 157 134 117 91 94 131 154 154 151 153 156 163 179 192 197 200 201 206 215 218 206 162 110 29 322
287 277 273 269 248 253 252 255 255 256 253 246 244 246 245 244 245 245 245 244 244 242 241 239 237 232 232 235 236 233 233 234 240 236 232 232 230 230 230 230 228 226 226 225 222 226 231 242 230 168 167 172 148 158 180 163 153 137 124 120 101 111 126 118 106 110 109 121 133 142 155 163 168 172 180 189 198 202 197 175 153 131 95 322 280
289 289 278 268 261 254 261 261 258 260 259 252 248 247 248 247 247 247 246 246 247 245 243 242 239 238 236 236 236 230 233 236 240 239 235 236 231 234 228 230 229 225 227 224 220 221 224 231 223 190 173 186 163 164 148 120 90 153 161 136 130 132 120 130 130 100 110 106 133 146 146 141 156 168 182 189 194 188 174 156 134 125 90 283 286
292 284 285 282 278 264 261 258 258 256 256 255 254 254 253 254 253 254 251 250 249 248 246 244 240 238 237 236 234 231 231 234 234 237 231 238 232 237 231 226 229 223 227 223 217 216 218 219 214 189 181 160 147 98 131 147 151 167 175 155 149 150 162 164 157 154 163 151 153 153 154 156 170 171 178 177 171 174 163 141 142 133 244 275 285
287 281 280 282 285 281 271 260 263 253 252 253 251 251 255 254 250 254 252 250 249 251 250 245 241 239 240 238 237 234 230 233 233 233 232 229 230 237 233 216 225 223 227 221 217 211 214 212 213 176 168 162 172 154 165 175 178 169 161 156 149 157 156 148 149 136 142 148 151 139 163 162 156 155 148 155 173 168 158 160 163 175 247 272 295
289 284 285 279 273 275 281 278 268 261 255 255 252 249 248 253 256 255 254 252 248 248 250 251 247 239 239 239 239 236 234 233 234 236 237 236 234 233 235 214 218 219 220 218 214 210 208 211 206 184 190 195 175 178 169 172 159 143 158 166 167 160 143 133 117 177 173 156 150 160 167 163 158 160 160 164 156 167 169 161 181 195 231 288 303
299 297 288 289 281 276 274 277 279 272 266 260 261 259 257 253 253 257 256 257 252 249 249 249 252 247 241 237 240 235 234 238 239 239 239 238 237 236 236 230 218 211 214 216 219 205 207 211 202 192 198 191 183 174 175 164 162 163 174 177 164 154 166 156 174 149 194 169 169 158 168 180 175 171 164 169 163 171 165 179 195 206 257 284 298
300 298 293 283 283 281 277 272 271 270 269 265 265 266 262 260 255 255 258 257 256 252 249 250 252 251 248 244 239 235 231 228 229 234 238 240 241 242 240 238 232 222 217 213 212 208 206 207 200 200 190 187 175 174 171 167 174 178 175 164 160 164 168 183 178 179 171 171 165 166 158 166 171 163 163 176 165 163 169 183 197 212 270 294 334
283 280 278 279 275 272 268 274 273 268 268 266 263 264 263 262 260 256 259 257 256 256 252 249 250 250 249 249 250 239 236 228 229 233 236 241 242 243 244 242 238 230 226 226 220 212 198 201 201 200 200 183 177 184 179 180 170 157 155 164 168 176 181 182 179 146 152 170 155 163 164 173 168 173 171 163 160 147 174 191 190 238 270 333 333
306 305 300 292 290 286 280 280 281 279 272 274 258 264 266 264 262 259 258 259 258 258 256 252 251 250 247 248 252 250 236 224 225 228 233 238 240 239 240 234 231 230 227 226 223 217 204 201 200 207 195 177 186 178 184 167 164 169 167 173 171 176 180 185 148 131 137 166 171 145 131 172 179 164 165 155 140 155 148 180 203 246 332 317 296
323 319 317 315 305 296 292 284 284 283 278 275 273 272 271 271 270 266 264 263 261 261 258 254 251 250 249 248 248 252 246 230 222 217 228 230 232 233 232 231 226 223 220 221 218 210 203 208 208 200 183 185 186 178 171 174 176 173 177 178 172 161 125 95 87 116 136 165 152 142 151 150 167 157 159 145 134 142 110 127 261 278 289 212 91
302 288 288 271 284 292 285 283 287 286 284 276 275 276 273 272 274 272 267 264 264 263 261 256 252 249 248 245 247 248 247 243 229 221 225 224 226 231 228 228 226 222 223 219 213 204 199 199 193 188 186 182 174 170 169 167 162 133 104 93 107 126 135 139 141 155 157 174 174 150 116 144 163 155 143 122 128 140 129 111 47 288 162 103 83
307 308 305 301 296 293 293 285 280 285 287 280 273 273 271 270 273 269 267 265 264 262 261 259 254 252 245 240 239 246 244 244 232 233 231 222 226 226 227 223 221 217 223 213 209 203 201 198 200 195 180 172 171 168 167 163 155 144 134 139 158 158 152 145 142 154 171 163 191 151 119 130 158 148 130 125 125 148 159 127 72 159 121 100 76
316 314 313 308 301 288 287 290 280 283 289 286 276 278 275 270 264 266 265 265 266 264 265 261 257 253 246 234 232 236 240 239 232 230 230 219 221 221 220 217 214 216 214 187 184 195 194 193 196 191 177 174 171 173 172 167 158 151 157 169 170 165 169 163 153 162 137 160 171 155 128 143 127 117 118 112 96 90 127 122 109 93 89 82 60
297 301 304 302 301 299 286 281 286 279 281 287 280 262 276 277 271 262 264 264 267 266 266 267 260 251 248 236 228 229 234 237 236 228 220 210 216 215 213 212 214 214 207 172 176 168 177 176 173 166 165 169 169 167 172 169 165 170 176 165 160 166 163 164 146 127 129 193 181 174 142 144 134 138 137 139 125 106 73 113 130 106 96 94 66